FENGYUN 1C DEB, 30719

Orbit data source: Space-Track

FENGYUN 1C DEB, 30719 is space debris in SSO originally from a launch on Mon, 10 May 1999 UTC launched from the Taiyaun Space Center, China (TSC). Fengyun 1C debris stems from the Chinese weather satellite Fengyun-1C, which was intentionally destroyed by a Chinese anti-satellite missile in 2007. This event dramatically increased the amount of space debris, with thousands of trackable fragments posing hazards to satellites and human spaceflight. The Fengyun 1C debris cloud has become a focal point in discussions about space sustainability and the need for international regulations to prevent the creation of new debris.

Loading next visibility...
Identifier
30719, 1999-025ASD
Orbit
SSO
Country
Flag of CNCN / PRC
Related business
Manufacturer
Unknown
Mission
Spacecraft
Bus & Motor
Unknown
Mass
Unknown
Launch date (UTC)
1999-05-10 (27 years ago)
Launch vehicle
Unknown
Launch site
Taiyaun Space Center, China (TSC)
Object type
Payload
Rocket body
Debris
Shape & HBR
Unknown shape, 0.1 m
Radar Cross Section
Small (<0.1 m²)

Expand to show TLE details & history
Last TLE update: 19 hours ago

TLE from 19 hours ago
0 FENGYUN 1C DEB
1 30719U 99025ASD 26121.71350412  .00019406  00000-0  36512-2 0  9999
2 30719  98.8921 278.9990 0011381 126.2058 234.0196 14.64598008994946
Epoch: 2026-05-01T17:07Z
TLE epoch observation values (Epoch: 2026-05-01T17:07:26.755Z)
Latitude
-0.00009°
Longitude
162.49573°
Altitude
686.061 km
Speed
7.511 km/s
True Right ascension
18h 35m 59s
True Declination
0° 00' 00"
Sunlit
Object was in full shadow at epoch
Visualization orbit readout
Latitude
Unknown
Longitude
Unknown
Altitude
Unknown
Speed
Unknown
Apparent Right ascension
Unknown
Apparent Declination
Unknown
Sunlit
N/A
Visualization observer readout
Local Sidereal Time
20:04:33
Azimuth
Unknown
Elevation
Unknown
Doppler factor
Unknown
Orbital elements
Apogee altitude
683.502 km
Perigee altitude
667.447 km
Semi-major axis
7,053.612 km
Eccentricity
0.00114
Inclination
98.8921°
RAAN
278.999°
Arg. of periapsis
126.2058°
True anomaly
233.91415°
Mean anomaly
234.0196°
Eccentric anomaly
233.96687°
Mean motion
3.66375 °/min
Orbital period
98.26 mins
BSTAR
0.0036512
Loading maneuver chart data...
Computing Atmospheric mass density...

Documentation

Showing up to 5 results
|